{"data":{"norad_id":62428,"intl_designator":"2024-249V","name":"STARLINK-32614","alt_names":[],"object_type":"PAYLOAD","status":"ACTIVE","operator":null,"country":"US","launch_date":"2024-12-23","launch_site_code":"AFETR","launch_vehicle":null,"mission":null,"orbit_class":"UNKNOWN","rcs_meters":null,"size_class":null,"mass_kg":null,"dimensions":null,"purposes":["comms"],"wikipedia_slug":null,"has_3d_model":false,"image_url":null,"decayed_at":null,"tle_current":{"epoch":"2026-05-25T00:09:05.311008Z","epoch_age_seconds":64763,"freshness":"FRESH","line1":"1 62428U 24249V   26145.00631147  .00016458  00000+0  60614-3 0  9996","line2":"2 62428  42.9997 251.0059 0001770 274.7192  85.3457 15.27586892 79396","mean_motion":15.27586892,"eccentricity":0.000177,"inclination_deg":42.9997,"raan_deg":251.0059,"arg_perigee_deg":274.7192,"mean_anomaly_deg":85.3457,"bstar":0.00060614,"rev_number":7939,"period_min":94.266323411212,"perigee_km":481.81403270362,"apogee_km":484.2428852761,"semimajor_km":6861.1654589899,"source":"CELESTRAK","updated_at":"2026-05-25T13:38:19.656169Z"}}}